Other Public Products
Issued by NWS Charleston, SC

Current Version | Previous Version | Text Only | Print | Product List | Glossary Off
Versions: 1 2 3 4 5 6 7 8 9 10 11 12 13 14 15 16 17 18 19 20 21 22 23 24 25 26 27 28 29 30 31 32 33 34 35 36 37 38 39 40 41 42 43 44 45 46 47 48 49 50

414
FPUS82 KCHS 251931
OPUCHS

TEST...KCHS/KSAV Gateway Observations...TEST
National Weather Service Charleston SC
300 PM EDT MON SEP 25 2017

NOTE: "fair" indicates few or no clouds below 12,000 feet with no
significant weather and/or obstructions to visibility.

SCZ050-WAZ558-NCZ071-TXZ119-213-PAZ071-DCZ001-FLZ074-172-MI076-
NYZ176-178-MAZ016-IL014-TNZ027-NJZ106-GAZ044-MD014-252000-

...Gateway Observations for Charleston International...

CITY           SKY/WX    TMP DP  RH WIND       PRES   REMARKS
Chas Airport   PTSUNNY   81  69  67 N9        29.88F
Seattle        CLOUDY    61  53  75 S7        30.12S
Charlotte      CLOUDY    84  64  50 N12G22    29.98F
Dallas DFW     CLOUDY    89  65  44 SE15G23   29.85F HX  91
Dallas Love    PTSUNNY   90  65  43 SE14      29.86F HX  92
Philladelphia  MOSUNNY   90  66  45 VRB5      30.00F HX  92
Wash National  PTSUNNY   91  67  44 NE9       30.00F HX  94
Baltimore      PTSUNNY   89  66  46 N8        30.00F HX  91
Miami          PTSUNNY   90  74  59 SE9       29.85F HX  99
Detroit        MOSUNNY   89  66  46 VRB5      30.02F HX  91
Newark         MOSUNNY   89  66  46 E8        30.01F HX  91
Laguardia      MOSUNNY   84  68  58 NE9       30.02F
J F K          MOSUNNY   81  59  47 S10       30.05S
Boston Logan   MOSUNNY   77  61  57 E10       30.07F
Ft. Lauderdale CLOUDY    93  77  59 SE12      29.83F HX 107
Chicago O`Hare MOSUNNY   90  55  30 VRB5      29.95F
Chicago Midway MOSUNNY   90  57  32 E6        29.96F
Houston Bush   MOSUNNY   89  71  55 SE13G20   29.85F HX  95
Houston Hobby  MOSUNNY   90  72  55 E13       29.84F HX  97
Nashville      MOSUNNY   89  64  43 E8        30.00F HX  90
Atlanta        MOSUNNY   84  58  40 NE6       29.99F

$$

GAZ044-118-TXZ119-213-NCZ071-DCZ001-MDZ014-506-PAZ021-071-NJZ106-
NYZ176-178-MAZ106-OHZ011-021-055-MIZ076-KYZ091-ILZ014-INZ047-
MNZ060-ONZ431-252000-

...Gateway Observations for Savannah International...

CITY           SKY/WX    TMP DP  RH WIND       PRES   REMARKS
Savannah Arpt  MOSUNNY   88  67  49 N10       29.89F HX  91
Atlanta        MOSUNNY   84  58  40 NE6       29.99F
Charlotte      CLOUDY    84  64  50 N12G22    29.98F
Dallas DFW     CLOUDY    89  65  44 SE15G23   29.85F HX  91
Houston Bush   MOSUNNY   89  71  55 SE13G20   29.85F HX  95
Wash National  PTSUNNY   91  67  44 NE9       30.00F HX  94
Wash Dulles    PTSUNNY   88  67  49 NE5       30.01F HX  91
Baltimore      PTSUNNY   89  66  46 N8        30.00F HX  91
Philadelphia   MOSUNNY   90  66  45 VRB5      30.00F HX  92
Newark         MOSUNNY   89  66  46 E8        30.01F HX  91
Laguardia      MOSUNNY   84  68  58 NE9       30.02F
J F K          MOSUNNY   81  59  47 S10       30.05S
Boston         MOSUNNY   77  61  57 E10       30.07F
Pittsburg      CLOUDY    86  62  44 CALM      30.06F
Akron          PTSUNNY   89  58  34 S7        30.06F
Cleveland      PTSUNNY   92  57  30 VRB7      30.04F HX  90
Cincinnati     PTSUNNY   88  62  41 VRB5      30.02F
Columbus       SUNNY     88  60  38 NE3       30.01F
Detroit        MOSUNNY   89  66  46 VRB5      30.02F HX  91
Chicago O`Hare MOSUNNY   90  55  30 VRB5      29.95F
Minneapolis    CLOUDY    63  59  87 N8        29.99S
Indianapolis   MOSUNNY   87  58  37 E6        30.00F
Toronto Canada MOSUNNY   88  66  48 S7        30.05F HX  90

$$




USA.gov is the U.S. government's official web portal to all federal, state and local government web resources and services.